KINEIS-5C

Last updated on Thu Oct 23 2025 00:02:50 GMT+0000 (Coordinated Universal Time)

1 62081U 24219A 25295.60343657 .00001422 00000+0 23264-3 0 9990 2 62081 97.9848 94.4756 0002555 71.0157 289.1327 14.72316800 48799
UTC large
Height (km)
Speed (km/s)
/
Latitude / Longitude
Inclination (degrees)
Orbital Period (minutes)
Azimuth
Elevation
Range (km)
Doppler Factor

Next 0 passes for location: London (51.5072 / 0.1276)

Sorry there are no passes over London.